Time,TemperatureF,DewpointF,PressureIn,WindDirection,WindDirectionDegrees,WindSpeedMPH,WindSpeedGustMPH,Humidity,HourlyPrecipIn,Conditions,Clouds,dailyrainin,SoftwareType,DateUTC
2013-01-23 00:00:00,4.7,-0.1,30.34,WNW,290,4.0,7.0,80,0.00,,---,0.00,VWS V14.01,2013-01-23 05:00:00,
2013-01-23 00:01:00,4.7,-0.1,30.35,West,270,4.0,7.0,80,0.00,,---,0.00,VWS V14.01,2013-01-23 05:01:00,
2013-01-23 00:03:00,4.7,-0.4,30.35,WNW,284,3.0,3.0,79,0.00,,---,0.00,VWS V14.01,2013-01-23 05:03:00,
2013-01-23 00:09:00,4.7,-0.4,30.35,WNW,287,3.0,5.0,79,0.00,,---,0.00,VWS V14.01,2013-01-23 05:09:00,
2013-01-23 00:14:00,4.8,-0.3,30.35,WNW,293,3.0,5.0,79,0.00,,---,0.00,VWS V14.01,2013-01-23 05:14:00,
2013-01-23 00:19:00,4.8,-0.5,30.35,WNW,302,1.0,5.0,78,0.00,,---,0.00,VWS V14.01,2013-01-23 05:19:00,
2013-01-23 00:24:00,4.8,-0.5,30.35,NNW,328,4.0,5.0,78,0.00,,---,0.00,VWS V14.01,2013-01-23 05:24:00,
2013-01-23 00:29:00,4.8,-0.5,30.35,West,266,1.0,5.0,78,0.00,,---,0.00,VWS V14.01,2013-01-23 05:29:00,
2013-01-23 00:34:00,4.8,-0.5,30.35,West,271,1.0,6.0,78,0.00,,---,0.00,VWS V14.01,2013-01-23 05:34:00,
2013-01-23 00:39:00,4.9,-0.4,30.35,West,263,3.0,6.0,78,0.00,,---,0.00,VWS V14.01,2013-01-23 05:39:00,
2013-01-23 00:44:00,5.0,-0.6,30.35,WNW,288,1.0,6.0,77,0.00,,---,0.00,VWS V14.01,2013-01-23 05:44:00,
2013-01-23 00:50:00,5.0,-0.3,30.35,WNW,302,2.0,6.0,78,0.00,,---,0.00,VWS V14.01,2013-01-23 05:50:00,
2013-01-23 00:55:00,5.0,-0.6,30.35,West,280,4.0,6.0,77,0.00,,---,0.00,VWS V14.01,2013-01-23 05:55:00,
2013-01-23 01:00:00,5.0,-0.6,30.35,WNW,296,2.0,6.0,77,0.00,,---,0.00,VWS V14.01,2013-01-23 06:00:00,
2013-01-23 01:05:00,5.1,-0.8,30.34,West,273,2.0,5.0,76,0.00,,---,0.00,VWS V14.01,2013-01-23 06:05:00,
2013-01-23 01:10:00,5.1,-0.8,30.34,West,278,2.0,5.0,76,0.00,,---,0.00,VWS V14.01,2013-01-23 06:10:00,
2013-01-23 01:15:00,5.0,-0.9,30.35,WNW,292,2.0,5.0,76,0.00,,---,0.00,VWS V14.01,2013-01-23 06:15:00,
2013-01-23 01:20:00,5.0,-0.9,30.35,SW,225,4.0,5.0,76,0.00,,---,0.00,VWS V14.01,2013-01-23 06:20:00,
2013-01-23 01:25:00,5.0,-0.9,30.35,WNW,287,2.0,6.0,76,0.00,,---,0.00,VWS V14.01,2013-01-23 06:25:00,
2013-01-23 01:30:00,5.0,-1.2,30.35,WNW,290,2.0,6.0,75,0.00,,---,0.00,VWS V14.01,2013-01-23 06:30:00,
2013-01-23 01:36:00,5.0,-1.2,30.34,WNW,294,5.0,6.0,75,0.00,,---,0.00,VWS V14.01,2013-01-23 06:36:00,
2013-01-23 01:41:00,5.0,-1.2,30.34,West,281,4.0,6.0,75,0.00,,---,0.00,VWS V14.01,2013-01-23 06:41:00,
2013-01-23 01:46:00,4.9,-1.6,30.34,WSW,245,2.0,6.0,74,0.00,,---,0.00,VWS V14.01,2013-01-23 06:46:00,
2013-01-23 01:51:00,4.8,-1.6,30.34,WNW,286,1.0,6.0,74,0.00,,---,0.00,VWS V14.01,2013-01-23 06:51:00,
2013-01-23 01:56:00,4.8,-1.6,30.34,WNW,291,2.0,6.0,74,0.00,,---,0.00,VWS V14.01,2013-01-23 06:56:00,
2013-01-23 02:01:00,4.7,-1.8,30.34,WSW,253,2.0,6.0,74,0.00,,---,0.00,VWS V14.01,2013-01-23 07:01:00,
2013-01-23 02:06:00,4.7,-1.8,30.34,West,262,3.0,4.0,74,0.00,,---,0.00,VWS V14.01,2013-01-23 07:06:00,
2013-01-23 02:11:00,4.7,-1.8,30.34,West,271,3.0,4.0,74,0.00,,---,0.00,VWS V14.01,2013-01-23 07:11:00,
2013-01-23 02:17:00,4.7,-1.5,30.34,West,262,2.0,4.0,75,0.00,,---,0.00,VWS V14.01,2013-01-23 07:17:00,
2013-01-23 02:22:00,4.7,-1.2,30.34,WSW,257,3.0,4.0,76,0.00,,---,0.00,VWS V14.01,2013-01-23 07:22:00,
2013-01-23 02:27:00,4.7,-0.6,30.35,WSW,239,4.0,6.0,78,0.00,,---,0.00,VWS V14.01,2013-01-23 07:27:00,
2013-01-23 02:32:00,4.7,-0.1,30.35,SW,222,2.0,6.0,80,0.00,,---,0.00,VWS V14.01,2013-01-23 07:32:00,
2013-01-23 02:37:00,4.7,-0.1,30.35,WSW,248,3.0,6.0,80,0.00,,---,0.00,VWS V14.01,2013-01-23 07:37:00,
2013-01-23 02:42:00,4.7,0.2,30.35,WSW,248,2.0,6.0,81,0.00,,---,0.00,VWS V14.01,2013-01-23 07:42:00,
2013-01-23 02:47:00,4.7,0.2,30.35,WSW,245,4.0,6.0,81,0.00,,---,0.00,VWS V14.01,2013-01-23 07:47:00,
2013-01-23 02:52:00,4.7,0.2,30.35,WSW,250,4.0,6.0,81,0.00,,---,0.00,VWS V14.01,2013-01-23 07:52:00,
2013-01-23 02:57:00,4.7,-0.1,30.35,WSW,245,4.0,6.0,80,0.00,,---,0.00,VWS V14.01,2013-01-23 07:57:00,
2013-01-23 03:03:00,4.7,-0.4,30.35,WSW,255,5.0,5.0,79,0.00,,---,0.00,VWS V14.01,2013-01-23 08:03:00,
2013-01-23 03:08:00,4.8,-0.3,30.35,WNW,294,3.0,6.0,79,0.00,,---,0.00,VWS V14.01,2013-01-23 08:08:00,
2013-01-23 03:13:00,4.8,-0.5,30.35,WSW,252,4.0,6.0,78,0.00,,---,0.00,VWS V14.01,2013-01-23 08:13:00,
2013-01-23 03:18:00,4.8,-0.5,30.35,West,280,4.0,6.0,78,0.00,,---,0.00,VWS V14.01,2013-01-23 08:18:00,
2013-01-23 03:23:00,4.8,-0.5,30.35,WNW,282,2.0,7.0,78,0.00,,---,0.00,VWS V14.01,2013-01-23 08:23:00,
2013-01-23 03:28:00,4.7,-0.4,30.35,NW,304,1.0,7.0,79,0.00,,---,0.00,VWS V14.01,2013-01-23 08:28:00,
2013-01-23 03:34:00,4.7,-0.6,30.35,West,280,2.0,7.0,78,0.00,,---,0.00,VWS V14.01,2013-01-23 08:34:00,
2013-01-23 03:39:00,4.6,-0.7,30.34,WSW,250,4.0,7.0,78,0.00,,---,0.00,VWS V14.01,2013-01-23 08:39:00,
2013-01-23 03:44:00,4.4,-0.9,30.34,West,270,2.0,7.0,78,0.00,,---,0.00,VWS V14.01,2013-01-23 08:44:00,
2013-01-23 03:49:00,4.2,-0.9,30.34,West,264,2.0,7.0,79,0.00,,---,0.00,VWS V14.01,2013-01-23 08:49:00,
2013-01-23 03:54:00,4.1,-0.9,30.34,West,266,2.0,7.0,79,0.00,,---,0.00,VWS V14.01,2013-01-23 08:54:00,
2013-01-23 03:59:00,3.9,-0.9,30.34,West,269,1.0,7.0,80,0.00,,---,0.00,VWS V14.01,2013-01-23 08:59:00,
2013-01-23 04:04:00,3.7,-1.1,30.34,WSW,257,1.0,2.0,80,0.00,,---,0.00,VWS V14.01,2013-01-23 09:04:00,
2013-01-23 04:09:00,3.5,-1.0,30.34,WSW,249,1.0,2.0,81,0.00,,---,0.00,VWS V14.01,2013-01-23 09:09:00,
2013-01-23 04:14:00,3.4,-1.1,30.35,WSW,246,1.0,3.0,81,0.00,,---,0.00,VWS V14.01,2013-01-23 09:14:00,
2013-01-23 04:19:00,3.2,-1.0,30.34,WSW,240,1.0,3.0,82,0.00,,---,0.00,VWS V14.01,2013-01-23 09:19:00,
2013-01-23 04:25:00,3.0,-1.2,30.35,WSW,252,1.0,3.0,82,0.00,,---,0.00,VWS V14.01,2013-01-23 09:25:00,
2013-01-23 04:30:00,2.9,-1.1,30.35,WSW,242,1.0,3.0,83,0.00,,---,0.00,VWS V14.01,2013-01-23 09:30:00,
2013-01-23 04:35:00,2.8,-1.2,30.34,SW,236,1.0,3.0,83,0.00,,---,0.00,VWS V14.01,2013-01-23 09:35:00,
2013-01-23 04:40:00,2.6,-1.4,30.34,SW,224,1.0,3.0,83,0.00,,---,0.00,VWS V14.01,2013-01-23 09:40:00,
2013-01-23 04:45:00,2.5,-1.2,30.34,SW,222,2.0,3.0,84,0.00,,---,0.00,VWS V14.01,2013-01-23 09:45:00,
2013-01-23 04:50:00,2.4,-1.3,30.34,WSW,238,2.0,3.0,84,0.00,,---,0.00,VWS V14.01,2013-01-23 09:50:00,
2013-01-23 04:55:00,2.3,-1.4,30.34,SW,227,2.0,3.0,84,0.00,,---,0.00,VWS V14.01,2013-01-23 09:55:00,
2013-01-23 05:01:00,2.1,-1.6,30.34,SW,235,2.0,3.0,84,0.00,,---,0.00,VWS V14.01,2013-01-23 10:01:00,
2013-01-23 05:06:00,2.0,-1.5,30.34,SW,218,1.0,3.0,85,0.00,,---,0.00,VWS V14.01,2013-01-23 10:06:00,
2013-01-23 05:11:00,1.9,-1.6,30.33,SW,222,1.0,3.0,85,0.00,,---,0.00,VWS V14.01,2013-01-23 10:11:00,
2013-01-23 05:16:00,1.8,-1.7,30.33,SW,225,1.0,3.0,85,0.00,,---,0.00,VWS V14.01,2013-01-23 10:16:00,
2013-01-23 05:21:00,1.1,-2.3,30.33,SW,227,2.0,3.0,85,0.00,,---,0.00,VWS V14.01,2013-01-23 10:21:00,
2013-01-23 05:27:00,1.1,-2.3,30.33,SW,227,2.0,3.0,85,0.00,,---,0.00,VWS V14.01,2013-01-23 10:27:00,
2013-01-23 05:32:00,1.1,-2.3,30.33,SW,227,2.0,3.0,85,0.00,,---,0.00,VWS V14.01,2013-01-23 10:32:00,
2013-01-23 05:37:00,1.1,-2.3,30.33,SW,227,2.0,3.0,85,0.00,,---,0.00,VWS V14.01,2013-01-23 10:37:00,
2013-01-23 05:42:00,1.1,-2.3,30.33,SW,227,2.0,3.0,85,0.00,,---,0.00,VWS V14.01,2013-01-23 10:42:00,
2013-01-23 05:47:00,1.1,-2.3,30.33,SW,227,2.0,3.0,85,0.00,,---,0.00,VWS V14.01,2013-01-23 10:47:00,
2013-01-23 05:53:00,1.1,-2.3,30.32,SW,227,2.0,3.0,85,0.00,,---,0.00,VWS V14.01,2013-01-23 10:53:00,
2013-01-23 05:58:00,1.1,-2.3,30.32,SW,227,2.0,3.0,85,0.00,,---,0.00,VWS V14.01,2013-01-23 10:58:00,
2013-01-23 06:03:00,1.1,-2.3,30.32,SW,227,2.0,2.0,85,0.00,,---,0.00,VWS V14.01,2013-01-23 11:03:00,
2013-01-23 06:08:00,1.1,-2.3,30.33,SW,227,2.0,2.0,85,0.00,,---,0.00,VWS V14.01,2013-01-23 11:08:00,
2013-01-23 06:13:00,1.1,-2.3,30.32,SW,227,2.0,2.0,85,0.00,,---,0.00,VWS V14.01,2013-01-23 11:13:00,
2013-01-23 06:18:00,1.1,-2.3,30.32,SW,227,2.0,2.0,85,0.00,,---,0.00,VWS V14.01,2013-01-23 11:18:00,
2013-01-23 06:23:00,1.1,-2.3,30.32,SW,227,2.0,2.0,85,0.00,,---,0.00,VWS V14.01,2013-01-23 11:23:00,
2013-01-23 06:28:00,1.1,-2.3,30.31,SW,227,2.0,2.0,85,0.00,,---,0.00,VWS V14.01,2013-01-23 11:28:00,
2013-01-23 06:33:00,1.1,-2.3,30.31,SW,227,2.0,2.0,85,0.00,,---,0.00,VWS V14.01,2013-01-23 11:33:00,
2013-01-23 06:39:00,1.1,-2.3,30.31,SW,227,2.0,2.0,85,0.00,,---,0.00,VWS V14.01,2013-01-23 11:39:00,
2013-01-23 06:44:00,1.1,-2.3,30.31,SW,227,2.0,2.0,85,0.00,,---,0.00,VWS V14.01,2013-01-23 11:44:00,
2013-01-23 06:49:00,1.1,-2.3,30.31,SW,227,2.0,2.0,85,0.00,,---,0.00,VWS V14.01,2013-01-23 11:49:00,
2013-01-23 06:54:00,1.1,-2.3,30.31,SW,227,2.0,2.0,85,0.00,,---,0.00,VWS V14.01,2013-01-23 11:54:00,
2013-01-23 06:59:00,1.1,-2.3,30.31,SW,227,2.0,2.0,85,0.00,,---,0.00,VWS V14.01,2013-01-23 11:59:00,
2013-01-23 07:04:00,1.1,-2.3,30.31,SW,227,2.0,2.0,85,0.00,,---,0.00,VWS V14.01,2013-01-23 12:04:00,
2013-01-23 07:09:00,1.1,-2.3,30.31,SW,227,2.0,2.0,85,0.00,,---,0.00,VWS V14.01,2013-01-23 12:09:00,
2013-01-23 07:14:00,1.1,-2.3,30.31,SW,227,2.0,2.0,85,0.00,,---,0.00,VWS V14.01,2013-01-23 12:14:00,
2013-01-23 07:19:00,1.1,-2.3,30.31,SW,227,2.0,2.0,85,0.00,,---,0.00,VWS V14.01,2013-01-23 12:19:00,
2013-01-23 07:24:00,1.1,-2.3,30.31,SW,227,2.0,2.0,85,0.00,,---,0.00,VWS V14.01,2013-01-23 12:24:00,
2013-01-23 07:29:00,1.1,-2.3,30.31,SW,227,2.0,2.0,85,0.00,,---,0.00,VWS V14.01,2013-01-23 12:29:00,
2013-01-23 07:34:00,1.1,-2.3,30.31,SW,227,2.0,2.0,85,0.00,,---,0.00,VWS V14.01,2013-01-23 12:34:00,
2013-01-23 07:40:00,1.1,-2.3,30.31,SW,227,2.0,2.0,85,0.00,,---,0.00,VWS V14.01,2013-01-23 12:40:00,
2013-01-23 07:45:00,1.1,-2.3,30.31,SW,227,2.0,2.0,85,0.00,,---,0.00,VWS V14.01,2013-01-23 12:45:00,
2013-01-23 07:50:00,1.1,-2.3,30.30,SW,227,2.0,2.0,85,0.00,,---,0.00,VWS V14.01,2013-01-23 12:50:00,
2013-01-23 07:55:00,1.1,-2.3,30.30,SW,227,2.0,2.0,85,0.00,,---,0.00,VWS V14.01,2013-01-23 12:55:00,
2013-01-23 08:00:00,1.1,-2.3,30.30,SW,227,2.0,2.0,85,0.00,,---,0.00,VWS V14.01,2013-01-23 13:00:00,
2013-01-23 08:05:00,1.1,-2.3,30.30,SW,227,2.0,2.0,85,0.00,,---,0.00,VWS V14.01,2013-01-23 13:05:00,
2013-01-23 08:11:00,1.1,-2.3,30.29,SW,227,2.0,2.0,85,0.00,,---,0.00,VWS V14.01,2013-01-23 13:11:00,
2013-01-23 08:16:00,1.1,-2.3,30.29,SW,227,2.0,2.0,85,0.00,,---,0.00,VWS V14.01,2013-01-23 13:16:00,
2013-01-23 08:21:00,1.1,-2.3,30.30,SW,227,2.0,2.0,85,0.00,,---,0.00,VWS V14.01,2013-01-23 13:21:00,
2013-01-23 08:26:00,1.1,-2.3,30.30,SW,227,2.0,2.0,85,0.00,,---,0.00,VWS V14.01,2013-01-23 13:26:00,
2013-01-23 08:31:00,1.1,-2.3,30.30,SW,227,2.0,2.0,85,0.00,,---,0.00,VWS V14.01,2013-01-23 13:31:00,
2013-01-23 08:36:00,1.1,-2.3,30.30,SW,227,2.0,2.0,85,0.00,,---,0.00,VWS V14.01,2013-01-23 13:36:00,
2013-01-23 08:41:00,1.1,-2.3,30.30,SW,227,2.0,2.0,85,0.00,,---,0.00,VWS V14.01,2013-01-23 13:41:00,
2013-01-23 08:46:00,1.1,-2.3,30.30,SW,227,2.0,2.0,85,0.00,,---,0.00,VWS V14.01,2013-01-23 13:46:00,
2013-01-23 08:51:00,4.6,0.6,30.30,SW,215,7.0,8.0,83,0.00,,---,0.00,VWS V14.01,2013-01-23 13:51:00,
2013-01-23 08:57:00,4.8,0.8,30.30,SSW,207,5.0,9.0,83,0.00,,---,0.00,VWS V14.01,2013-01-23 13:57:00,
2013-01-23 09:02:00,4.9,0.9,30.30,SSW,201,9.0,9.0,83,0.00,,---,0.00,VWS V14.01,2013-01-23 14:02:00,
2013-01-23 09:07:00,5.0,1.0,30.30,SSW,212,7.0,9.0,83,0.00,,---,0.00,VWS V14.01,2013-01-23 14:07:00,
2013-01-23 09:12:00,5.1,0.8,30.30,SW,218,7.0,10.0,82,0.00,,---,0.00,VWS V14.01,2013-01-23 14:12:00,
2013-01-23 09:17:00,5.3,0.8,30.30,SSW,203,7.0,10.0,81,0.00,,---,0.00,VWS V14.01,2013-01-23 14:17:00,
2013-01-23 09:22:00,5.5,0.9,30.30,SW,221,7.0,10.0,81,0.00,,---,0.00,VWS V14.01,2013-01-23 14:22:00,
2013-01-23 09:27:00,5.7,0.9,30.30,SSW,197,7.0,10.0,80,0.00,,---,0.00,VWS V14.01,2013-01-23 14:27:00,
2013-01-23 09:32:00,5.9,0.8,30.30,SW,217,5.0,10.0,79,0.00,,---,0.00,VWS V14.01,2013-01-23 14:32:00,
2013-01-23 09:37:00,6.3,0.9,30.30,SSW,207,5.0,10.0,78,0.00,,---,0.00,VWS V14.01,2013-01-23 14:37:00,
2013-01-23 09:42:00,6.5,0.8,30.30,SW,222,8.0,10.0,77,0.00,,---,0.00,VWS V14.01,2013-01-23 14:42:00,
2013-01-23 09:47:00,6.7,0.8,30.30,SSW,208,3.0,10.0,76,0.00,,---,0.00,VWS V14.01,2013-01-23 14:47:00,
2013-01-23 09:52:00,6.9,0.7,30.30,SSW,195,9.0,10.0,75,0.00,,---,0.00,VWS V14.01,2013-01-23 14:52:00,
2013-01-23 09:58:00,7.2,0.7,30.30,SSW,200,5.0,10.0,74,0.00,,---,0.00,VWS V14.01,2013-01-23 14:58:00,
2013-01-23 10:03:00,7.5,0.7,30.30,South,191,5.0,7.0,73,0.00,,---,0.00,VWS V14.01,2013-01-23 15:03:00,
2013-01-23 10:08:00,7.8,0.7,30.30,SW,224,6.0,12.0,72,0.00,,---,0.00,VWS V14.01,2013-01-23 15:08:00,
2013-01-23 10:13:00,8.1,0.7,30.30,SSE,159,7.0,12.0,71,0.00,,---,0.00,VWS V14.01,2013-01-23 15:13:00,
2013-01-23 10:18:00,8.3,0.9,30.30,SSW,208,6.0,12.0,71,0.00,,---,0.00,VWS V14.01,2013-01-23 15:18:00,
2013-01-23 10:23:00,8.6,1.1,30.30,SSW,205,4.0,12.0,71,0.00,,---,0.00,VWS V14.01,2013-01-23 15:23:00,
2013-01-23 10:28:00,9.1,1.3,30.30,SSW,210,5.0,12.0,70,0.00,,---,0.00,VWS V14.01,2013-01-23 15:28:00,
2013-01-23 10:33:00,9.3,1.2,30.30,SSW,209,7.0,12.0,69,0.00,,---,0.00,VWS V14.01,2013-01-23 15:33:00,
2013-01-23 10:38:00,9.4,1.6,30.30,South,173,4.0,12.0,70,0.00,,---,0.00,VWS V14.01,2013-01-23 15:38:00,
2013-01-23 10:44:00,9.3,1.5,30.30,SSW,194,7.0,12.0,70,0.00,,---,0.00,VWS V14.01,2013-01-23 15:44:00,
2013-01-23 10:49:00,9.5,2.0,30.30,SSW,200,4.0,12.0,71,0.00,,---,0.00,VWS V14.01,2013-01-23 15:49:00,
2013-01-23 10:54:00,9.5,2.0,30.30,SW,217,6.0,12.0,71,0.00,,---,0.00,VWS V14.01,2013-01-23 15:54:00,
2013-01-23 10:59:00,9.6,2.4,30.30,WSW,248,6.0,12.0,72,0.00,,---,0.00,VWS V14.01,2013-01-23 15:59:00,
2013-01-23 11:04:00,9.7,2.8,30.30,SW,224,10.0,12.0,73,0.00,,---,0.00,VWS V14.01,2013-01-23 16:04:00,
2013-01-23 11:09:00,9.8,3.2,30.29,WSW,238,7.0,12.0,74,0.00,,---,0.00,VWS V14.01,2013-01-23 16:09:00,
2013-01-23 11:14:00,10.0,3.4,30.29,SW,215,4.0,12.0,74,0.00,,---,0.00,VWS V14.01,2013-01-23 16:14:00,
2013-01-23 11:19:00,10.3,4.0,30.29,SW,218,9.0,13.0,75,0.00,,---,0.00,VWS V14.01,2013-01-23 16:19:00,
2013-01-23 11:24:00,10.4,4.3,30.29,SW,231,6.0,13.0,76,0.00,,---,0.00,VWS V14.01,2013-01-23 16:24:00,
2013-01-23 11:30:00,10.5,4.7,30.28,WSW,256,8.0,13.0,77,0.00,,---,0.00,VWS V14.01,2013-01-23 16:30:00,
2013-01-23 11:35:00,10.7,5.2,30.28,SSW,208,5.0,13.0,78,0.00,,---,0.00,VWS V14.01,2013-01-23 16:35:00,
2013-01-23 11:40:00,11.0,5.5,30.28,SSW,209,6.0,13.0,78,0.00,,---,0.00,VWS V14.01,2013-01-23 16:40:00,
2013-01-23 11:45:00,11.2,5.7,30.27,SW,222,6.0,13.0,78,0.00,,---,0.00,VWS V14.01,2013-01-23 16:45:00,
2013-01-23 11:50:00,11.5,6.3,30.27,SSW,210,7.0,13.0,79,0.00,,---,0.00,VWS V14.01,2013-01-23 16:50:00,
2013-01-23 11:55:00,11.8,6.0,30.27,SSW,208,7.0,13.0,77,0.00,,---,0.00,VWS V14.01,2013-01-23 16:55:00,
2013-01-23 12:00:00,12.0,6.2,30.26,SSW,210,6.0,13.0,77,0.00,,---,0.00,VWS V14.01,2013-01-23 17:00:00,
2013-01-23 12:05:00,12.1,6.3,30.26,SSW,210,5.0,9.0,77,0.00,,---,0.00,VWS V14.01,2013-01-23 17:05:00,
2013-01-23 12:10:00,12.5,6.7,30.26,SSE,160,7.0,9.0,77,0.00,,---,0.00,VWS V14.01,2013-01-23 17:10:00,
2013-01-23 12:15:00,12.6,6.8,30.25,SSW,212,7.0,11.0,77,0.00,,---,0.00,VWS V14.01,2013-01-23 17:15:00,
2013-01-23 12:20:00,13.0,6.9,30.25,WSW,240,9.0,14.0,76,0.00,,---,0.00,VWS V14.01,2013-01-23 17:20:00,
2013-01-23 12:26:00,13.0,6.9,30.25,SW,217,6.0,14.0,76,0.00,,---,0.00,VWS V14.01,2013-01-23 17:26:00,
2013-01-23 12:31:00,13.0,6.9,30.25,SSW,210,7.0,14.0,76,0.00,,---,0.00,VWS V14.01,2013-01-23 17:31:00,
2013-01-23 12:36:00,13.2,7.1,30.24,WSW,250,5.0,14.0,76,0.00,,---,0.00,VWS V14.01,2013-01-23 17:36:00,
2013-01-23 12:41:00,13.2,7.1,30.24,West,268,6.0,14.0,76,0.00,,---,0.00,VWS V14.01,2013-01-23 17:41:00,
2013-01-23 12:46:00,13.4,7.6,30.24,SSW,208,7.0,14.0,77,0.00,,---,0.00,VWS V14.01,2013-01-23 17:46:00,
2013-01-23 12:51:00,13.8,7.9,30.23,SW,228,7.0,14.0,77,0.00,,---,0.00,VWS V14.01,2013-01-23 17:51:00,
2013-01-23 12:56:00,14.1,8.2,30.23,West,266,9.0,14.0,77,0.00,,---,0.00,VWS V14.01,2013-01-23 17:56:00,
2013-01-23 13:02:00,14.4,8.2,30.22,WSW,238,11.0,11.0,76,0.00,,---,0.00,VWS V14.01,2013-01-23 18:02:00,
2013-01-23 13:07:00,14.3,7.8,30.22,WSW,248,6.0,12.0,75,0.00,,---,0.00,VWS V14.01,2013-01-23 18:07:00,
2013-01-23 13:12:00,14.4,7.9,30.22,WSW,258,12.0,15.0,75,0.00,,---,0.00,VWS V14.01,2013-01-23 18:12:00,
2013-01-23 13:17:00,14.5,8.3,30.21,SW,224,9.0,15.0,76,0.00,,---,0.00,VWS V14.01,2013-01-23 18:17:00,
2013-01-23 13:22:00,14.6,8.1,30.21,SSW,210,7.0,15.0,75,0.00,,---,0.00,VWS V14.01,2013-01-23 18:22:00,
2013-01-23 13:27:00,14.7,8.2,30.20,SW,231,8.0,15.0,75,0.00,,---,0.00,VWS V14.01,2013-01-23 18:27:00,
2013-01-23 13:32:00,14.9,8.4,30.20,SW,224,11.0,15.0,75,0.00,,---,0.00,VWS V14.01,2013-01-23 18:32:00,
2013-01-23 13:37:00,14.9,8.4,30.20,WSW,238,12.0,15.0,75,0.00,,---,0.00,VWS V14.01,2013-01-23 18:37:00,
2013-01-23 13:42:00,14.9,8.4,30.20,West,263,7.0,15.0,75,0.00,,---,0.00,VWS V14.01,2013-01-23 18:42:00,
2013-01-23 13:47:00,14.8,8.3,30.20,WSW,256,9.0,15.0,75,0.00,,---,0.00,VWS V14.01,2013-01-23 18:47:00,
2013-01-23 13:53:00,14.9,8.7,30.20,SW,236,9.0,15.0,76,0.00,,---,0.00,VWS V14.01,2013-01-23 18:53:00,
2013-01-23 13:58:00,15.0,8.5,30.19,SW,228,5.0,15.0,75,0.00,,---,0.00,VWS V14.01,2013-01-23 18:58:00,
2013-01-23 14:03:00,15.2,9.0,30.19,SW,235,8.0,8.0,76,0.00,,---,0.00,VWS V14.01,2013-01-23 19:03:00,
2013-01-23 14:08:00,15.2,8.4,30.19,WSW,245,10.0,16.0,74,0.00,,---,0.00,VWS V14.01,2013-01-23 19:08:00,
2013-01-23 14:13:00,15.2,9.0,30.18,WSW,246,10.0,16.0,76,0.00,,---,0.00,VWS V14.01,2013-01-23 19:13:00,
2013-01-23 14:18:00,15.3,8.8,30.18,SW,236,9.0,16.0,75,0.00,,---,0.00,VWS V14.01,2013-01-23 19:18:00,
2013-01-23 14:23:00,15.4,8.9,30.18,SW,236,12.0,16.0,75,0.00,,---,0.00,VWS V14.01,2013-01-23 19:23:00,
2013-01-23 14:28:00,15.4,8.9,30.18,WSW,240,6.0,18.0,75,0.00,,---,0.00,VWS V14.01,2013-01-23 19:28:00,
2013-01-23 14:33:00,15.6,8.8,30.18,SW,235,12.0,18.0,74,0.00,,---,0.00,VWS V14.01,2013-01-23 19:33:00,
2013-01-23 14:38:00,15.7,9.2,30.18,SW,224,8.0,18.0,75,0.00,,---,0.00,VWS V14.01,2013-01-23 19:38:00,
2013-01-23 14:43:00,15.9,9.1,30.17,WSW,255,13.0,18.0,74,0.00,,---,0.00,VWS V14.01,2013-01-23 19:43:00,
2013-01-23 14:49:00,16.0,8.3,30.17,West,280,9.0,18.0,71,0.00,,---,0.00,VWS V14.01,2013-01-23 19:49:00,
2013-01-23 14:54:00,16.0,8.3,30.17,SW,214,6.0,18.0,71,0.00,,---,0.00,VWS V14.01,2013-01-23 19:54:00,
2013-01-23 14:59:00,15.9,8.2,30.17,West,263,8.0,18.0,71,0.00,,---,0.00,VWS V14.01,2013-01-23 19:59:00,
2013-01-23 15:04:00,16.1,8.7,30.17,SW,233,5.0,11.0,72,0.00,,---,0.00,VWS V14.01,2013-01-23 20:04:00,
2013-01-23 15:09:00,16.2,8.5,30.17,WSW,258,7.0,13.0,71,0.00,,---,0.00,VWS V14.01,2013-01-23 20:09:00,
2013-01-23 15:14:00,16.1,8.1,30.17,WSW,250,7.0,13.0,70,0.00,,---,0.00,VWS V14.01,2013-01-23 20:14:00,
2013-01-23 15:19:00,16.2,8.5,30.16,SW,222,11.0,13.0,71,0.00,,---,0.00,VWS V14.01,2013-01-23 20:19:00,
2013-01-23 15:24:00,16.4,8.7,30.16,WSW,240,8.0,15.0,71,0.00,,---,0.00,VWS V14.01,2013-01-23 20:24:00,
2013-01-23 15:29:00,16.4,8.7,30.16,WSW,252,10.0,15.0,71,0.00,,---,0.00,VWS V14.01,2013-01-23 20:29:00,
2013-01-23 15:34:00,16.5,8.4,30.16,SW,233,9.0,15.0,70,0.00,,---,0.00,VWS V14.01,2013-01-23 20:34:00,
2013-01-23 15:39:00,16.7,8.3,30.16,SW,236,6.0,16.0,69,0.00,,---,0.00,VWS V14.01,2013-01-23 20:39:00,
2013-01-23 15:44:00,16.6,7.9,30.15,West,260,11.0,16.0,68,0.00,,---,0.00,VWS V14.01,2013-01-23 20:44:00,
2013-01-23 15:49:00,16.5,8.1,30.15,SSW,210,8.0,16.0,69,0.00,,---,0.00,VWS V14.01,2013-01-23 20:49:00,
2013-01-23 15:54:00,16.6,8.5,30.15,SW,218,8.0,16.0,70,0.00,,---,0.00,VWS V14.01,2013-01-23 20:54:00,
2013-01-23 15:59:00,16.8,8.7,30.15,SSW,210,12.0,16.0,70,0.00,,---,0.00,VWS V14.01,2013-01-23 20:59:00,
2013-01-23 16:05:00,16.7,8.3,30.15,SW,224,12.0,14.0,69,0.00,,---,0.00,VWS V14.01,2013-01-23 21:05:00,
2013-01-23 16:10:00,16.3,8.2,30.15,WSW,252,6.0,14.0,70,0.00,,---,0.00,VWS V14.01,2013-01-23 21:10:00,
2013-01-23 16:15:00,16.1,8.4,30.15,WSW,240,10.0,14.0,71,0.00,,---,0.00,VWS V14.01,2013-01-23 21:15:00,
2013-01-23 16:20:00,16.4,8.3,30.15,SW,218,10.0,14.0,70,0.00,,---,0.00,VWS V14.01,2013-01-23 21:20:00,
2013-01-23 16:25:00,16.9,8.5,30.15,SW,231,8.0,14.0,69,0.00,,---,0.00,VWS V14.01,2013-01-23 21:25:00,
2013-01-23 16:30:00,17.0,7.9,30.15,WSW,243,8.0,14.0,67,0.00,,---,0.00,VWS V14.01,2013-01-23 21:30:00,
2013-01-23 16:36:00,16.8,7.8,30.15,WSW,240,8.0,14.0,67,0.00,,---,0.00,VWS V14.01,2013-01-23 21:36:00,
2013-01-23 16:41:00,16.6,7.9,30.15,SW,228,7.0,14.0,68,0.00,,---,0.00,VWS V14.01,2013-01-23 21:41:00,
2013-01-23 16:46:00,16.3,7.3,30.15,WSW,250,8.0,15.0,67,0.00,,---,0.00,VWS V14.01,2013-01-23 21:46:00,
2013-01-23 16:51:00,16.0,7.3,30.15,WSW,242,8.0,15.0,68,0.00,,---,0.00,VWS V14.01,2013-01-23 21:51:00,
2013-01-23 16:56:00,15.8,7.1,30.14,WSW,246,7.0,15.0,68,0.00,,---,0.00,VWS V14.01,2013-01-23 21:56:00,
2013-01-23 17:01:00,15.7,7.3,30.14,SSW,210,7.0,7.0,69,0.00,,---,0.00,VWS V14.01,2013-01-23 22:01:00,
2013-01-23 17:06:00,15.6,7.3,30.14,WSW,241,9.0,11.0,69,0.00,,---,0.00,VWS V14.01,2013-01-23 22:06:00,
2013-01-23 17:11:00,15.5,7.2,30.14,SSW,204,3.0,11.0,69,0.00,,---,0.00,VWS V14.01,2013-01-23 22:11:00,
2013-01-23 17:17:00,15.5,7.5,30.14,WSW,257,2.0,11.0,70,0.00,,---,0.00,VWS V14.01,2013-01-23 22:17:00,
2013-01-23 17:22:00,15.5,7.5,30.14,WSW,253,5.0,11.0,70,0.00,,---,0.00,VWS V14.01,2013-01-23 22:22:00,
2013-01-23 17:27:00,15.6,7.3,30.15,WSW,257,6.0,11.0,69,0.00,,---,0.00,VWS V14.01,2013-01-23 22:27:00,
2013-01-23 17:32:00,15.5,7.2,30.14,WSW,243,6.0,11.0,69,0.00,,---,0.00,VWS V14.01,2013-01-23 22:32:00,
2013-01-23 17:37:00,15.5,7.2,30.14,SW,226,5.0,11.0,69,0.00,,---,0.00,VWS V14.01,2013-01-23 22:37:00,
2013-01-23 17:42:00,15.5,7.2,30.14,WSW,250,10.0,11.0,69,0.00,,---,0.00,VWS V14.01,2013-01-23 22:42:00,
2013-01-23 17:48:00,15.4,7.1,30.14,SW,214,8.0,11.0,69,0.00,,---,0.00,VWS V14.01,2013-01-23 22:48:00,
2013-01-23 17:53:00,15.4,7.4,30.14,SW,225,5.0,11.0,70,0.00,,---,0.00,VWS V14.01,2013-01-23 22:53:00,
2013-01-23 17:58:00,15.3,7.6,30.14,SW,233,8.0,11.0,71,0.00,,---,0.00,VWS V14.01,2013-01-23 22:58:00,
2013-01-23 18:03:00,15.2,7.8,30.14,SW,236,6.0,6.0,72,0.00,,---,0.00,VWS V14.01,2013-01-23 23:03:00,
2013-01-23 18:08:00,15.2,7.8,30.14,SW,217,7.0,8.0,72,0.00,,---,0.00,VWS V14.01,2013-01-23 23:08:00,
2013-01-23 18:13:00,15.2,8.1,30.14,WSW,243,6.0,9.0,73,0.00,,---,0.00,VWS V14.01,2013-01-23 23:13:00,
2013-01-23 18:18:00,15.1,8.0,30.14,WSW,256,5.0,10.0,73,0.00,,---,0.00,VWS V14.01,2013-01-23 23:18:00,
2013-01-23 18:23:00,14.9,8.1,30.14,SW,228,9.0,11.0,74,0.00,,---,0.00,VWS V14.01,2013-01-23 23:23:00,
2013-01-23 18:29:00,14.9,8.4,30.15,WSW,242,7.0,11.0,75,0.00,,---,0.00,VWS V14.01,2013-01-23 23:29:00,
2013-01-23 18:34:00,14.8,8.3,30.15,SW,220,4.0,11.0,75,0.00,,---,0.00,VWS V14.01,2013-01-23 23:34:00,
2013-01-23 18:39:00,14.7,8.5,30.15,SW,235,10.0,11.0,76,0.00,,---,0.00,VWS V14.01,2013-01-23 23:39:00,
2013-01-23 18:44:00,14.5,8.9,30.15,SW,231,5.0,11.0,78,0.00,,---,0.00,VWS V14.01,2013-01-23 23:44:00,
2013-01-23 18:49:00,14.4,8.8,30.15,SW,228,4.0,11.0,78,0.00,,---,0.00,VWS V14.01,2013-01-23 23:49:00,
2013-01-23 18:54:00,14.4,9.1,30.15,WSW,239,5.0,11.0,79,0.00,,---,0.00,VWS V14.01,2013-01-23 23:54:00,
2013-01-23 18:59:00,14.3,9.0,30.15,SW,229,3.0,11.0,79,0.00,,---,0.00,VWS V14.01,2013-01-23 23:59:00,
2013-01-23 19:04:00,14.3,9.3,30.15,WSW,253,2.0,7.0,80,0.00,,---,0.00,VWS V14.01,2013-01-24 00:04:00,
2013-01-23 19:09:00,14.1,9.4,30.15,WSW,240,3.0,7.0,81,0.00,,---,0.00,VWS V14.01,2013-01-24 00:09:00,
2013-01-23 19:14:00,14.1,9.4,30.14,SW,214,6.0,7.0,81,0.00,,---,0.00,VWS V14.01,2013-01-24 00:14:00,
2013-01-23 19:20:00,14.0,9.5,30.14,SW,234,3.0,7.0,82,0.00,,---,0.00,VWS V14.01,2013-01-24 00:20:00,
2013-01-23 19:25:00,14.0,9.5,30.14,SSW,207,4.0,7.0,82,0.00,,---,0.00,VWS V14.01,2013-01-24 00:25:00,
2013-01-23 19:30:00,14.0,9.5,30.14,SW,222,2.0,9.0,82,0.00,,---,0.00,VWS V14.01,2013-01-24 00:30:00,
2013-01-23 19:35:00,13.9,9.4,30.14,SW,214,2.0,9.0,82,0.00,,---,0.00,VWS V14.01,2013-01-24 00:35:00,
2013-01-23 19:40:00,13.9,9.4,30.14,SW,229,5.0,9.0,82,0.00,,---,0.00,VWS V14.01,2013-01-24 00:40:00,
2013-01-23 19:45:00,13.8,9.3,30.14,SW,214,4.0,9.0,82,0.00,,---,0.00,VWS V14.01,2013-01-24 00:45:00,
2013-01-23 19:50:00,13.8,9.6,30.14,WSW,242,4.0,9.0,83,0.00,,---,0.00,VWS V14.01,2013-01-24 00:50:00,
2013-01-23 19:55:00,13.7,9.5,30.14,SW,222,4.0,9.0,83,0.00,,---,0.00,VWS V14.01,2013-01-24 00:55:00,
2013-01-23 20:00:00,13.7,9.5,30.13,SW,233,4.0,9.0,83,0.00,,---,0.00,VWS V14.01,2013-01-24 01:00:00,
2013-01-23 20:06:00,13.7,9.5,30.13,SW,229,4.0,7.0,83,0.00,,---,0.00,VWS V14.01,2013-01-24 01:06:00,
2013-01-23 20:11:00,13.7,9.5,30.13,SW,217,4.0,7.0,83,0.00,,---,0.00,VWS V14.01,2013-01-24 01:11:00,
2013-01-23 20:16:00,13.6,9.4,30.13,SW,232,4.0,7.0,83,0.00,,---,0.00,VWS V14.01,2013-01-24 01:16:00,
2013-01-23 20:21:00,13.6,9.4,30.13,SW,217,3.0,7.0,83,0.00,,---,0.00,VWS V14.01,2013-01-24 01:21:00,
2013-01-23 20:26:00,13.5,9.6,30.13,SW,235,3.0,7.0,84,0.00,,---,0.00,VWS V14.01,2013-01-24 01:26:00,
2013-01-23 20:31:00,13.5,9.6,30.13,SW,219,3.0,7.0,84,0.00,,---,0.00,VWS V14.01,2013-01-24 01:31:00,
2013-01-23 20:36:00,13.4,9.5,30.13,SW,217,3.0,7.0,84,0.00,,---,0.00,VWS V14.01,2013-01-24 01:36:00,
2013-01-23 20:42:00,13.3,9.4,30.13,SSW,212,4.0,7.0,84,0.00,,---,0.00,VWS V14.01,2013-01-24 01:42:00,
2013-01-23 20:47:00,13.3,9.1,30.13,SW,236,6.0,9.0,83,0.00,,---,0.00,VWS V14.01,2013-01-24 01:47:00,
2013-01-23 20:52:00,13.2,9.0,30.13,SW,228,3.0,9.0,83,0.00,,---,0.00,VWS V14.01,2013-01-24 01:52:00,
2013-01-23 20:57:00,13.0,9.1,30.13,SW,226,4.0,9.0,84,0.00,,---,0.00,VWS V14.01,2013-01-24 01:57:00,
2013-01-23 21:02:00,13.0,9.1,30.13,WSW,255,2.0,3.0,84,0.00,,---,0.00,VWS V14.01,2013-01-24 02:02:00,
2013-01-23 21:07:00,12.8,8.9,30.14,SW,236,1.0,4.0,84,0.00,,---,0.00,VWS V14.01,2013-01-24 02:07:00,
2013-01-23 21:12:00,12.8,8.9,30.14,WSW,238,2.0,4.0,84,0.00,,---,0.00,VWS V14.01,2013-01-24 02:12:00,
2013-01-23 21:17:00,12.7,8.8,30.14,SW,225,2.0,4.0,84,0.00,,---,0.00,VWS V14.01,2013-01-24 02:17:00,
2013-01-23 21:22:00,12.7,8.8,30.14,SW,219,2.0,5.0,84,0.00,,---,0.00,VWS V14.01,2013-01-24 02:22:00,
2013-01-23 21:27:00,12.7,9.1,30.13,WSW,245,2.0,5.0,85,0.00,,---,0.00,VWS V14.01,2013-01-24 02:27:00,
2013-01-23 21:32:00,12.7,9.1,30.14,SW,214,3.0,5.0,85,0.00,,---,0.00,VWS V14.01,2013-01-24 02:32:00,
2013-01-23 21:38:00,12.7,9.1,30.14,SW,226,2.0,5.0,85,0.00,,---,0.00,VWS V14.01,2013-01-24 02:38:00,
2013-01-23 21:43:00,12.7,9.1,30.14,SW,222,2.0,5.0,85,0.00,,---,0.00,VWS V14.01,2013-01-24 02:43:00,
2013-01-23 21:48:00,12.7,9.1,30.14,SW,233,1.0,5.0,85,0.00,,---,0.00,VWS V14.01,2013-01-24 02:48:00,
2013-01-23 21:53:00,12.7,9.1,30.14,WSW,243,2.0,5.0,85,0.00,,---,0.00,VWS V14.01,2013-01-24 02:53:00,
2013-01-23 21:58:00,12.7,9.1,30.14,WSW,243,1.0,5.0,85,0.00,,---,0.00,VWS V14.01,2013-01-24 02:58:00,
2013-01-23 22:03:00,12.8,9.1,30.14,SW,236,2.0,3.0,85,0.00,,---,0.00,VWS V14.01,2013-01-24 03:03:00,
2013-01-23 22:08:00,12.8,9.1,30.14,WSW,244,2.0,3.0,85,0.00,,---,0.00,VWS V14.01,2013-01-24 03:08:00,
2013-01-23 22:13:00,12.8,9.4,30.14,SW,233,1.0,3.0,86,0.00,,---,0.00,VWS V14.01,2013-01-24 03:13:00,
2013-01-23 22:18:00,12.8,9.4,30.14,West,266,1.0,3.0,86,0.00,,---,0.00,VWS V14.01,2013-01-24 03:18:00,
2013-01-23 22:23:00,12.8,9.4,30.15,West,276,1.0,3.0,86,0.00,,---,0.00,VWS V14.01,2013-01-24 03:23:00,
2013-01-23 22:29:00,12.7,9.3,30.15,West,266,1.0,4.0,86,0.00,,---,0.00,VWS V14.01,2013-01-24 03:29:00,
2013-01-23 22:34:00,12.7,9.3,30.15,WSW,256,1.0,4.0,86,0.00,,---,0.00,VWS V14.01,2013-01-24 03:34:00,
2013-01-23 22:39:00,12.5,9.1,30.15,West,262,3.0,4.0,86,0.00,,---,0.00,VWS V14.01,2013-01-24 03:39:00,
2013-01-23 22:44:00,12.5,9.4,30.15,WNW,293,1.0,4.0,87,0.00,,---,0.00,VWS V14.01,2013-01-24 03:44:00,
2013-01-23 22:49:00,12.4,9.3,30.15,WNW,290,0.0,4.0,87,0.00,,---,0.00,VWS V14.01,2013-01-24 03:49:00,
2013-01-23 22:54:00,12.4,9.3,30.15,West,274,1.0,4.0,87,0.00,,---,0.00,VWS V14.01,2013-01-24 03:54:00,
2013-01-23 22:59:00,12.2,9.1,30.15,West,281,1.0,4.0,87,0.00,,---,0.00,VWS V14.01,2013-01-24 03:59:00,
2013-01-23 23:04:00,12.2,9.1,30.16,WNW,285,1.0,3.0,87,0.00,,---,0.00,VWS V14.01,2013-01-24 04:04:00,
2013-01-23 23:10:00,12.2,9.3,30.16,WSW,246,0.0,3.0,88,0.00,,---,0.00,VWS V14.01,2013-01-24 04:10:00,
2013-01-23 23:15:00,12.2,9.3,30.16,West,262,1.0,3.0,88,0.00,,---,0.00,VWS V14.01,2013-01-24 04:15:00,
2013-01-23 23:20:00,12.3,9.4,30.16,West,276,3.0,4.0,88,0.00,,---,0.00,VWS V14.01,2013-01-24 04:20:00,
2013-01-23 23:25:00,12.2,9.3,30.16,West,273,1.0,4.0,88,0.00,,---,0.00,VWS V14.01,2013-01-24 04:25:00,
2013-01-23 23:30:00,12.3,9.4,30.16,WNW,291,1.0,4.0,88,0.00,,---,0.00,VWS V14.01,2013-01-24 04:30:00,
2013-01-23 23:35:00,12.3,9.4,30.17,WNW,290,2.0,5.0,88,0.00,,---,0.00,VWS V14.01,2013-01-24 04:35:00,
2013-01-23 23:40:00,12.4,9.5,30.17,West,260,1.0,5.0,88,0.00,,---,0.00,VWS V14.01,2013-01-24 04:40:00,
2013-01-23 23:45:00,12.4,9.5,30.17,West,278,2.0,5.0,88,0.00,,---,0.00,VWS V14.01,2013-01-24 04:45:00,
2013-01-23 23:51:00,12.4,9.5,30.17,NW,314,4.0,6.0,88,0.00,,---,0.00,VWS V14.01,2013-01-24 04:51:00,
2013-01-23 23:56:00,12.6,9.7,30.17,WNW,295,6.0,7.0,88,0.00,,---,0.00,VWS V14.01,2013-01-24 04:56:00,